FW6744 Weather Reports


Display with metric or nautical units.
time (UTC)temp
F
wind
direction
speed
MPH
gust
MPH
rain 1hr
in
rain 24hr
in
rain mn
in
humidity
%
barometer
mb
20260508195636 74 345 1.0 5.0 0.00 0.13 0.01 33 1009.6
20260508195353 74 195 1.0 6.0 0.00 0.13 0.01 36 1009.5
20260508194632 74 276 1.0 7.0 0.00 0.13 0.01 31 1009.7
20260508194132 74 225 1.0 7.0 0.00 0.13 0.01 32 1009.8
20260508193631 75 203 1.0 3.0 0.00 0.13 0.01 31 1009.8
20260508193358 75 191 1.0 4.0 0.00 0.13 0.01 34 1009.9
20260508192631 74 162 1.0 4.0 0.00 0.13 0.01 32 1009.9
20260508192131 74 229 1.0 6.0 0.00 0.13 0.01 31 1010.0
20260508191631 74 34 1.0 6.0 0.00 0.13 0.01 33 1010.3
20260508191353 74 130 1.0 4.0 0.00 0.13 0.01 34 1010.3
20260508190632 75 56 1.0 4.0 0.00 0.13 0.01 32 1010.5
20260508190132 74 176 1.0 4.0 0.00 0.13 0.01 35 1010.4
20260508185630 74 158 1.0 4.0 0.00 0.13 0.01 34 1010.4
20260508185131 74 117 1.0 4.0 0.00 0.13 0.01 33 1010.6
20260508184632 74 32 1.0 3.0 0.00 0.13 0.01 33 1010.6
20260508184128 74 154 1.0 5.0 0.00 0.13 0.01 34 1010.6
20260508183627 73 165 1.0 5.0 0.00 0.13 0.01 34 1010.7
20260508183127 74 245 1.0 5.0 0.00 0.13 0.01 35 1010.8
20260508182625 74 141 1.0 5.0 0.00 0.13 0.01 34 1010.8
20260508182125 74 125 0.0 5.0 0.00 0.13 0.01 36 1010.9
20260508181626 73 217 1.0 4.0 0.00 0.13 0.01 36 1010.9
20260508181125 73 235 1.0 4.0 0.00 0.13 0.01 34 1010.9
20260508180626 73 221 1.0 4.0 0.00 0.13 0.01 36 1011.1
20260508180120 73 226 1.0 4.0 0.00 0.13 0.01 36 1011.1
20260508175620 72 209 1.0 7.0 0.00 0.13 0.01 37 1011.1
20260508175123 72 289 1.0 7.0 0.00 0.13 0.01 33 1011.2
20260508174620 72 82 1.0 4.0 0.00 0.13 0.01 35 1011.2
20260508174121 72 129 1.0 4.0 0.00 0.13 0.01 33 1011.2
20260508173620 72 48 1.0 4.0 0.00 0.13 0.01 37 1011.3
20260508173119 72 232 0.0 2.0 0.00 0.13 0.01 38 1011.3
20260508173108 72 147 0.0 3.0 0.00 0.13 0.01 37 1011.4
20260508172116 71 206 1.0 5.0 0.00 0.13 0.01 38 1011.6
20260508171616 70 65 1.0 5.0 0.00 0.13 0.01 37 1011.6
20260508171118 71 229 1.0 4.0 0.00 0.13 0.01 36 1011.8
20260508170618 71 163 0.0 4.0 0.00 0.13 0.01 37 1011.8
20260508170116 70 49 1.0 4.0 0.00 0.13 0.01 38 1011.8
20260508165616 70 118 1.0 4.0 0.00 0.13 0.01 37 1011.9
20260508165114 69 152 1.0 4.0 0.00 0.13 0.01 42 1011.9
20260508164614 69 349 1.0 4.0 0.00 0.13 0.01 38 1012.0
20260508164115 68 34 1.0 4.0 0.00 0.13 0.01 38 1012.1
20260508163610 68 197 1.0 4.0 0.00 0.13 0.01 37 1012.3
20260508163323 67 23 1.0 4.0 0.00 0.13 0.01 39 1012.3
20260508162823 67 160 1.0 5.0 0.00 0.13 0.01 37 1012.4
20260508162051 67 212 0.0 5.0 0.00 0.13 0.01 42 1012.5
20260508161814 66 155 0.0 1.0 0.00 0.13 0.01 43 1012.5
20260508161039 65 150 0.0 1.0 0.00 0.13 0.01 46 1012.5
20260508160533 65 150 0.0 2.0 0.00 0.13 0.01 45 1012.6
20260508160027 64 203 0.0 2.0 0.00 0.14 0.01 45 1012.7
20260508155521 63 112 0.0 2.0 0.00 0.14 0.01 46 1012.7
20260508155015 63 27 0.0 2.0 0.00 0.14 0.01 46 1012.9
20260508154509 62 214 0.0 2.0 0.00 0.14 0.01 46 1012.9
20260508154003 62 49 0.0 2.0 0.00 0.14 0.01 48 1013.0
20260508153457 61 357 0.0 1.0 0.00 0.15 0.01 47 1013.0
20260508153213 60 217 0.0 1.0 0.00 0.15 0.01 57 1013.0
20260508152446 60 217 0.0 1.0 0.00 0.15 0.01 56 1013.0
20260508151938 60 229 0.0 2.0 0.00 0.16 0.01 60 1013.1
20260508151433 59 229 0.0 2.0 0.00 0.16 0.01 53 1013.2
20260508150927 59 225 0.0 2.0 0.00 0.16 0.01 50 1013.2
20260508150421 59 30 0.0 2.0 0.00 0.16 0.01 52 1013.2
20260508145915 58 153 0.0 3.0 0.00 0.16 0.01 54 1013.3
20260508145410 58 198 0.0 3.0 0.00 0.16 0.01 54 1013.2
20260508144903 57 212 0.0 2.0 0.00 0.16 0.01 63 1013.2
20260508144357 56 46 0.0 1.0 0.00 0.16 0.01 69 1013.2
20260508143851 56 46 0.0 1.0 0.00 0.16 0.01 66 1013.2
20260508143345 56 63 0.0 1.0 0.00 0.16 0.01 70 1013.2
20260508142838 55 63 0.0 1.0 0.00 0.16 0.01 74 1013.1
20260508142333 54 140 0.0 1.0 0.00 0.16 0.01 72 1013.1
20260508141828 54 208 0.0 1.0 0.00 0.16 0.01 75 1013.1
20260508141322 53 210 0.0 1.0 0.00 0.16 0.01 80 1013.2
20260508141035 53 210 0.0 1.0 0.00 0.16 0.01 82 1013.2
20260508140309 52 210 0.0 1.0 0.00 0.16 0.01 87 1013.2
20260508135803 52 210 0.0 1.0 0.00 0.16 0.01 89 1013.2
20260508135256 52 198 0.0 2.0 0.00 0.16 0.01 92 1013.3
20260508135015 51 198 0.0 2.0 0.00 0.16 0.01 92 1013.3
20260508134439 49 180 0.0 0.0 0.00 0.16 0.01 97 1013.4
20260508134329 50 175 0.0 1.0 0.00 0.16 0.01 95 1013.4
20260508133233 49 180 0.0 0.0 0.00 0.16 0.01 97 1013.4
20260508132727 49 180 0.0 0.0 0.00 0.16 0.01 97 1013.4
20260508132221 49 180 0.0 0.0 0.00 0.16 0.01 97 1013.4
20260508131715 49 180 0.0 0.0 0.00 0.16 0.01 97 1013.3
20260508131209 50 180 0.0 0.0 0.00 0.16 0.01 97 1013.3
20260508130703 50 180 0.0 0.0 0.00 0.16 0.01 97 1013.4
20260508130424 49 180 0.0 0.0 0.00 0.16 0.01 97 1013.3
20260508125651 49 180 0.0 0.0 0.00 0.16 0.01 97 1013.3
20260508125145 49 180 0.0 0.0 0.00 0.16 0.01 97 1013.4
20260508125131 49 180 0.0 0.0 0.00 0.16 0.01 97 1013.3
20260508124358 49 180 0.0 0.0 0.00 0.16 0.01 97 1013.3
20260508123627 48 180 0.0 0.0 0.00 0.16 0.01 97 1013.2
20260508123121 48 180 0.0 0.0 0.00 0.16 0.01 97 1013.1
20260508122615 47 180 0.0 0.0 0.01 0.16 0.01 97 1013.1
20260508122109 47 180 0.0 0.0 0.01 0.16 0.01 97 1013.1
20260508122047 46 180 0.0 0.0 0.01 0.16 0.01 97 1013.0
20260508121319 46 180 0.0 0.0 0.01 0.16 0.01 97 1012.9
20260508120818 45 180 0.0 0.0 0.01 0.16 0.01 97 1012.7
20260508120045 44 180 0.0 0.0 0.01 0.16 0.01 97 1012.6
20260508115539 44 180 0.0 0.0 0.01 0.16 0.01 97 1012.5
20260508115033 44 180 0.0 0.0 0.01 0.16 0.01 97 1012.5
20260508114527 43 180 0.0 0.0 0.01 0.16 0.01 97 1012.3
20260508114249 43 180 0.0 0.0 0.01 0.16 0.01 96 1012.3
20260508113514 43 180 0.0 0.0 0.01 0.16 0.01 96 1012.3
20260508113009 42 180 0.0 0.0 0.00 0.15 0.01 96 1012.2
20260508112504 42 180 0.0 0.0 0.00 0.15 0.00 96 1012.2
20260508111957 42 180 0.0 0.0 0.00 0.15 0.00 96 1012.1
20260508111451 42 180 0.0 0.0 0.00 0.15 0.00 96 1012.0
20260508111204 42 180 0.0 0.0 0.00 0.15 0.00 96 1011.9
20260508110446 42 180 0.0 0.0 0.00 0.15 0.00 96 1011.8
20260508105946 42 180 0.0 0.0 0.00 0.15 0.00 96 1011.7
20260508105445 42 180 0.0 0.0 0.00 0.15 0.00 96 1011.6
20260508104945 42 180 0.0 0.0 0.00 0.15 0.00 96 1011.5
20260508104705 42 180 0.0 0.0 0.00 0.15 0.00 96 1011.4
20260508103943 42 180 0.0 0.0 0.00 0.15 0.00 96 1011.4
20260508103442 42 180 0.0 0.0 0.00 0.15 0.00 96 1011.3
20260508102941 42 180 0.0 0.0 0.00 0.15 0.00 96 1011.3
20260508102443 42 180 0.0 0.0 0.00 0.15 0.00 96 1011.3
20260508101942 42 180 0.0 0.0 0.00 0.15 0.00 96 1011.3
20260508101443 42 180 0.0 0.0 0.00 0.15 0.00 96 1011.2
20260508100939 42 180 0.0 0.0 0.00 0.15 0.00 96 1011.1
20260508100438 43 180 0.0 0.0 0.00 0.15 0.00 96 1011.0
20260508095938 43 180 0.0 0.0 0.00 0.15 0.00 96 1011.0
20260508095439 43 180 0.0 0.0 0.00 0.15 0.00 96 1010.9
20260508094938 43 180 0.0 0.0 0.00 0.15 0.00 96 1010.9
20260508094437 43 180 0.0 0.0 0.00 0.15 0.00 96 1010.8
20260508093939 43 180 0.0 0.0 0.00 0.15 0.00 96 1010.7
20260508093439 44 180 0.0 0.0 0.00 0.15 0.00 96 1010.8
20260508092939 44 180 0.0 0.0 0.00 0.15 0.00 96 1010.6
20260508092436 44 180 0.0 0.0 0.00 0.15 0.00 96 1010.5
20260508091935 44 180 0.0 0.0 0.00 0.15 0.00 96 1010.5
20260508091435 44 180 0.0 0.0 0.00 0.15 0.00 96 1010.4
20260508090934 44 180 0.0 0.0 0.00 0.15 0.00 96 1010.4
20260508090433 44 180 0.0 0.0 0.00 0.15 0.00 96 1010.3
20260508090153 44 180 0.0 0.0 0.00 0.15 0.00 96 1010.3
20260508085924 44 180 0.0 0.0 0.00 0.15 0.00 96 1010.3
20260508084935 44 180 0.0 0.0 0.00 0.15 0.00 96 1010.3
20260508084435 44 180 0.0 0.0 0.00 0.15 0.00 96 1010.2
20260508083929 44 180 0.0 0.0 0.00 0.15 0.00 96 1010.2
20260508083422 44 180 0.0 0.0 0.00 0.15 0.00 96 1010.1
20260508082916 44 180 0.0 0.0 0.00 0.15 0.00 96 1010.0
20260508082411 44 180 0.0 0.0 0.00 0.15 0.00 96 1009.9
20260508082321 45 180 0.0 0.0 0.00 0.15 0.00 96 1009.9
20260508081949 45 180 0.0 0.0 0.00 0.15 0.00 96 1009.9
20260508080852 45 180 0.0 0.0 0.00 0.15 0.00 96 1009.8
20260508080346 45 180 0.0 0.0 0.00 0.15 0.00 96 1009.8
20260508075335 45 180 0.0 0.0 0.00 0.15 0.00 96 1009.7
20260508074828 45 180 0.0 0.0 0.00 0.15 0.00 96 1009.7
20260508074322 45 180 0.0 0.0 0.00 0.15 0.00 96 1009.6
20260508073816 45 180 0.0 0.0 0.00 0.15 0.00 96 1009.6
20260508073310 45 180 0.0 0.0 0.00 0.15 0.00 96 1009.6
20260508072804 45 180 0.0 0.0 0.00 0.15 0.00 96 1009.6
20260508072508 45 180 0.0 0.0 0.00 0.15 0.00 96 1009.4
20260508072350 45 180 0.0 0.0 0.00 0.15 0.00 96 1009.5
20260508071246 45 180 0.0 0.0 0.00 0.15 0.00 96 1009.4
20260508070740 45 180 0.0 0.0 0.00 0.15 0.00 96 1009.3
20260508070233 45 180 0.0 0.0 0.00 0.15 0.00 96 1009.3
20260508065729 45 180 0.0 0.0 0.00 0.15 0.00 96 1009.3
20260508065221 45 180 0.0 0.0 0.00 0.15 0.00 96 1009.3
20260508064716 45 180 0.0 0.0 0.00 0.15 0.00 96 1009.3
20260508064210 45 180 0.0 0.0 0.00 0.15 0.00 96 1009.3
20260508063704 45 180 0.0 0.0 0.00 0.15 0.00 96 1009.3
20260508063158 45 180 0.0 0.0 0.00 0.15 0.00 96 1009.3
20260508062652 45 180 0.0 0.0 0.00 0.15 0.00 95 1009.2
20260508062146 45 180 0.0 0.0 0.00 0.15 0.00 95 1009.2
20260508061639 45 180 0.0 0.0 0.00 0.15 0.00 95 1009.1
20260508061135 45 180 0.0 0.0 0.00 0.15 0.00 95 1009.1
20260508060851 45 180 0.0 0.0 0.00 0.15 0.00 95 1009.0
20260508060122 45 180 0.0 0.0 0.00 0.15 0.00 95 1009.0
20260508055616 45 180 0.0 0.0 0.00 0.15 0.00 95 1008.9
20260508055111 45 180 0.0 0.0 0.00 0.15 0.00 95 1008.9
20260508054604 45 180 0.0 0.0 0.00 0.15 0.00 95 1008.8
20260508054058 45 180 0.0 0.0 0.00 0.15 0.00 95 1008.7
20260508053553 45 180 0.0 0.0 0.00 0.15 0.00 95 1008.8
20260508053306 46 180 0.0 0.0 0.00 0.15 0.00 95 1008.8
20260508052540 46 180 0.0 0.0 0.00 0.15 0.00 95 1008.8
20260508052259 46 180 0.0 0.0 0.00 0.15 0.00 95 1008.9
20260508051537 46 180 0.0 0.0 0.00 0.15 0.00 95 1008.8
20260508051037 46 180 0.0 0.0 0.00 0.15 0.00 95 1008.8
20260508050533 46 180 0.0 0.0 0.00 0.15 0.00 95 1008.8
20260508050031 46 180 0.0 0.0 0.00 0.15 0.00 95 1008.8
20260508045753 46 180 0.0 0.0 0.00 0.15 0.00 95 1008.8
20260508045028 46 180 0.0 0.0 0.00 0.15 0.00 95 1008.7
20260508044526 46 180 0.0 0.0 0.00 0.15 0.00 95 1008.5
20260508044027 46 180 0.0 0.0 0.00 0.15 0.00 95 1008.5
20260508043523 46 180 0.0 0.0 0.00 0.15 0.00 95 1008.4
20260508043240 46 180 0.0 0.0 0.00 0.15 0.00 95 1008.4
20260508042524 47 180 0.0 0.0 0.00 0.15 0.00 95 1008.4
20260508042024 47 180 0.0 0.0 0.00 0.15 0.00 95 1008.5
20260508041523 47 180 0.0 0.0 0.00 0.15 0.00 95 1008.5
20260508041025 47 180 0.0 0.0 0.00 0.15 0.00 95 1008.4
20260508040521 47 180 0.0 0.0 0.00 0.15 0.00 95 1008.4
20260508040021 47 180 0.0 0.0 0.00 0.15 0.00 95 1008.4
20260508035519 47 180 0.0 0.0 0.00 0.15 0.16 95 1008.3
20260508035247 47 180 0.0 0.0 0.00 0.15 0.16 95 1008.3
20260508034511 47 180 0.0 0.0 0.00 0.15 0.16 95 1008.3
20260508034006 48 180 0.0 0.0 0.00 0.15 0.16 95 1008.3
20260508033500 48 180 0.0 0.0 0.00 0.15 0.16 95 1008.2
20260508032953 48 180 0.0 0.0 0.00 0.15 0.16 95 1008.2
20260508032449 48 180 0.0 0.0 0.00 0.15 0.16 95 1008.2
20260508031942 48 180 0.0 0.0 0.00 0.15 0.16 95 1008.2
20260508031435 48 180 0.0 0.0 0.00 0.15 0.16 95 1008.2
20260508030930 48 180 0.0 0.0 0.00 0.15 0.16 95 1008.2
20260508030424 48 180 0.0 0.0 0.00 0.15 0.16 95 1008.2
20260508025918 48 180 0.0 0.0 0.00 0.15 0.16 95 1008.0
20260508025418 48 180 0.0 0.0 0.00 0.15 0.16 95 1008.0
20260508024915 48 180 0.0 0.0 0.00 0.15 0.16 95 1008.0
20260508024413 48 180 0.0 0.0 0.00 0.15 0.16 94 1008.0
20260508023916 48 180 0.0 0.0 0.00 0.15 0.16 94 1008.0
20260508023413 48 180 0.0 0.0 0.00 0.15 0.16 94 1008.0
20260508022912 48 180 0.0 0.0 0.00 0.15 0.16 94 1007.9
20260508022410 48 180 0.0 0.0 0.00 0.15 0.16 94 1008.0
20260508021909 48 180 0.0 0.0 0.00 0.15 0.16 94 1008.0
20260508021627 48 180 0.0 0.0 0.00 0.15 0.16 94 1008.0
20260508021351 48 180 0.0 0.0 0.00 0.15 0.16 94 1008.0
20260508020406 48 180 0.0 0.0 0.00 0.15 0.16 94 1008.0
20260508015905 49 180 0.0 0.0 0.00 0.15 0.16 93 1007.8
20260508015402 49 180 0.0 0.0 0.00 0.15 0.16 94 1007.7
20260508014859 49 180 0.0 0.0 0.00 0.15 0.16 93 1007.5
20260508014618 49 180 0.0 0.0 0.00 0.15 0.16 93 1007.6
20260508014113 49 180 0.0 0.0 0.00 0.15 0.16 93 1007.6
20260508013611 50 180 0.0 0.0 0.00 0.15 0.16 93 1007.7
20260508012855 50 180 0.0 0.0 0.00 0.15 0.16 93 1007.7
20260508012353 50 180 0.0 0.0 0.00 0.15 0.16 93 1007.7
20260508011854 50 180 0.0 0.0 0.00 0.15 0.16 93 1007.7
20260508011347 51 180 0.0 0.0 0.00 0.15 0.16 93 1007.7
20260508010843 51 180 0.0 0.0 0.00 0.15 0.16 93 1007.6
20260508010336 51 180 0.0 0.0 0.00 0.15 0.16 93 1007.6
20260508010055 51 180 0.0 0.0 0.00 0.15 0.16 93 1007.7
20260508005323 51 180 0.0 0.0 0.00 0.15 0.16 93 1007.5
20260508004818 51 180 0.0 0.0 0.00 0.15 0.16 93 1007.5
20260508004312 52 180 0.0 0.0 0.00 0.15 0.16 93 1007.4
20260508003806 52 180 0.0 0.0 0.00 0.15 0.16 93 1007.4
20260508003521 52 180 0.0 0.0 0.00 0.15 0.16 93 1007.4
20260508002755 52 180 0.0 0.0 0.00 0.15 0.16 93 1007.4
20260508002248 52 180 0.0 0.0 0.00 0.15 0.16 93 1007.4
20260508001743 52 180 0.0 0.0 0.00 0.15 0.16 92 1007.3
20260508001236 53 180 0.0 0.0 0.00 0.15 0.16 92 1007.2
20260508000730 53 180 0.0 0.0 0.00 0.15 0.16 92 1007.0
20260508000444 53 180 0.0 0.0 0.00 0.15 0.16 92 1006.9
20260507235718 53 180 0.0 0.0 0.00 0.15 0.16 92 1006.8
20260507235212 53 180 0.0 0.0 0.00 0.15 0.16 92 1006.8
20260507234706 53 180 0.0 0.0 0.00 0.15 0.16 92 1006.7
20260507234200 53 180 0.0 0.0 0.00 0.15 0.16 92 1006.6
20260507233654 53 180 0.0 0.0 0.00 0.15 0.16 92 1006.5
20260507233148 53 180 0.0 0.0 0.00 0.15 0.16 92 1006.6
20260507232642 53 180 0.0 0.0 0.00 0.15 0.16 92 1006.5
20260507232357 53 180 0.0 0.0 0.00 0.15 0.16 92 1006.5
20260507231629 54 180 0.0 0.0 0.00 0.15 0.16 91 1006.3
20260507231124 54 180 0.0 0.0 0.00 0.15 0.16 91 1006.3
20260507230836 54 180 0.0 0.0 0.00 0.15 0.16 91 1006.2
20260507230112 54 180 0.0 0.0 0.00 0.15 0.16 90 1006.2
20260507225826 54 180 0.0 0.0 0.00 0.15 0.16 90 1006.3
20260507225100 54 180 0.0 0.0 0.00 0.15 0.16 90 1006.3
20260507224554 54 180 0.0 0.0 0.00 0.15 0.16 90 1006.3
20260507224048 54 180 0.0 0.0 0.00 0.15 0.16 90 1006.3
20260507223542 54 180 0.0 0.0 0.00 0.15 0.16 90 1006.2
20260507223036 54 180 0.0 0.0 0.00 0.15 0.16 90 1006.4
20260507222530 54 180 0.0 0.0 0.00 0.15 0.16 91 1006.3
20260507222024 54 180 0.0 0.0 0.00 0.15 0.16 91 1006.3
20260507221518 54 180 0.0 0.0 0.00 0.15 0.16 91 1006.4
20260507221012 54 180 0.0 0.0 0.00 0.15 0.16 91 1006.1
20260507220727 54 180 0.0 0.0 0.00 0.15 0.16 90 1006.1
20260507220000 54 180 0.0 0.0 0.00 0.15 0.16 91 1006.2
20260507215454 54 180 0.0 0.0 0.00 0.15 0.16 90 1006.1
20260507214948 54 180 0.0 0.0 0.01 0.15 0.16 90 1006.1
20260507214442 54 180 0.0 0.0 0.02 0.15 0.16 90 1006.3
20260507213936 54 180 0.0 0.0 0.03 0.15 0.16 90 1006.4
20260507213654 55 180 0.0 0.0 0.05 0.15 0.16 90 1006.1
20260507212924 55 180 0.0 0.0 0.06 0.15 0.16 90 1005.9
20260507212418 54 180 0.0 0.0 0.07 0.15 0.16 91 1006.0
20260507211912 54 180 0.0 0.0 0.08 0.15 0.16 91 1006.1
20260507211407 54 180 0.0 0.0 0.09 0.15 0.16 91 1006.1
20260507210901 54 180 0.0 0.0 0.11 0.15 0.16 91 1005.8
20260507210609 53 180 0.0 0.0 0.12 0.15 0.16 91 1006.0
20260507205849 53 180 0.0 0.0 0.12 0.15 0.16 91 1006.2
20260507205342 53 180 0.0 0.0 0.12 0.15 0.16 90 1006.1
20260507204836 53 180 0.0 0.0 0.11 0.14 0.15 89 1006.5
20260507204330 53 180 0.0 0.0 0.10 0.13 0.14 89 1006.7
20260507203824 53 180 0.0 0.0 0.09 0.12 0.13 88 1006.5
20260507203317 53 180 0.0 0.0 0.07 0.10 0.11 87 1006.6
20260507203044 54 180 0.0 0.0 0.06 0.09 0.10 87 1006.5
20260507202315 54 180 0.0 0.0 0.04 0.07 0.09 87 1006.4
20260507201814 55 180 0.0 0.0 0.04 0.07 0.08 86 1006.2
20260507201310 55 180 0.0 0.0 0.03 0.06 0.07 86 1006.2
20260507200808 55 180 0.0 0.0 0.01 0.04 0.05 85 1006.3
20260507200306 55 180 0.0 0.0 0.00 0.03 0.04 84 1006.3